Flag for Canada Weather past 2 weeks in Coral Harbour, Nunavut, Canada

Now
54 °F

Overcast.


Feels Like: 52 °F
Forecast: 50 / 58 °F
Wind: 6 mph from West

Location: Coral Harbour

Current Time: Jul 28, 2015 at 9:20:31 AM

Latest Report: Jul 28, 2015 at 9:00 AM


Visibility: 15 mi

Pressure: 29.85 "Hg

Humidity: 88%

Dew point: 50 °F

Location of Coral HarbourLocation

Historic Weather in Coral Harbour — Graph

°F

Coral Harbour temperature yesterday

Maximum temperature yesterday: 63 °F (at 3:00 PM)
Minimum temperature yesterday: 48 °F (at 4:00 AM)
Average temperature yesterday: 54 °F

Past Weeks' High & Low Weather Summary

 TemperatureHumidityPressure
High64 °F (Jul 26, 2:00 PM)100% (Jul 18, 12:00 AM)30.06 "Hg (Jul 18, 12:00 AM)
Low36 °F (Jul 18, 12:00 AM)45% (Jul 14, 3:00 PM)29.67 "Hg (Jul 16, 1:00 PM)
Average50 °F78%29.86 "Hg
* Reported Jul 13 8:00 AM — Jul 28 8:00 AM, Coral Harbour, Weather by CustomWeather, © 2015

Note: Actual official high and low records may vary slightly from our data, if they occured in-between our weather recording intervals... More about our weather records

Advertising

Coral Harbour weather history for previous 24 hours

 ConditionsComfort  
Time TempWeatherWind HumidityBarometerVisibility
8:00 AM
Tue, Jul 28
52 °FMore clouds than sun.6 mph94%29.85 "Hg15 mi
7:00 AM48 °FMostly cloudy.6 mph94%29.85 "Hg15 mi
6:00 AM46 °FMostly cloudy.6 mph93%29.85 "Hg15 mi
5:00 AM50 °FMostly cloudy.6 mph94%29.85 "Hg15 mi
4:00 AM52 °FMostly cloudy.6 mph94%29.85 "Hg15 mi
3:00 AM52 °FMostly cloudy.6 mph94%29.85 "Hg15 mi
2:00 AM52 °FPassing clouds.6 mph94%29.86 "Hg15 mi
1:00 AM52 °FPassing clouds.6 mph94%29.86 "Hg15 mi
12:00 AM50 °FPassing clouds.6 mph100%29.86 "Hg15 mi
11:00 PM
Mon, Jul 27
50 °FPartly cloudy.6 mph94%29.86 "Hg15 mi
10:00 PM52 °FBroken clouds.6 mph94%29.85 "Hg15 mi
9:00 PM55 °FScattered clouds.6 mph88%29.86 "Hg15 mi
8:00 PM55 °FBroken clouds.6 mph88%29.85 "Hg15 mi
7:00 PM55 °FBroken clouds.6 mph88%29.84 "Hg15 mi
6:00 PM57 °FScattered showers. Broken clouds.17 mph82%29.84 "Hg15 mi
5:00 PM57 °FScattered clouds.23 mph82%29.83 "Hg15 mi
4:00 PM57 °FPassing clouds.17 mph77%29.82 "Hg15 mi
3:00 PM63 °FPassing clouds.12 mph64%29.81 "Hg15 mi
2:00 PM61 °FPassing clouds.12 mph68%29.81 "Hg15 mi
1:00 PM61 °FScattered clouds.12 mph68%29.81 "Hg15 mi
12:00 PM59 °FScattered clouds.12 mph72%29.81 "Hg15 mi
11:00 AM59 °FScattered clouds.6 mph72%29.82 "Hg15 mi
10:00 AM57 °FPartly sunny.6 mph72%29.82 "Hg15 mi
9:00 AM55 °FCloudy.6 mph82%29.81 "Hg15 mi
Weather by CustomWeather, © 2015

See weather overviewHow to use our weather pages